User: anonymous   Login
Location: Trois-Rivi�res
(46.3500°N, 72.5500°W)
Time: 18:11:27
(UTC-05:00)
Language:

SJ-11-01 - Orbit

View from above orbital plane
View from above orbital plane
View from above satellite
View from above satellite

Ground track
Ground track

The orbit data is extracted from the following two-line orbital elements,

1 36088U 09061A   18056.42506907  .00000042  00000-0  18186-4 0  9998
2 36088  98.1019 104.0380 0011078 187.7134 172.3899 14.60006610441595
Epoch (UTC): 25 February 2018 10:12:05
Eccentricity: 0.0011078
inclination: 98.1019°
perigee height: 685 km
apogee height: 701 km
right ascension of ascending node: 104.0380°
argument of perigee: 187.7134°
revolutions per day: 14.60006610
mean anomaly at epoch: 172.3899°
orbit number at epoch: 44159

The dashed part of the orbit path shows where the satellite is in the earth's shadow,  

DLR